Location: Central Coast NSW, Australia
(33.2407°S, 151.4316°E)
Time: 20:04:57
(UTC+11:00)

Hubble Space Telescope - Visible Passes

Search period start: 18 February 2018 00:00
Search period end: 28 February 2018 00:00
Orbit: 537 x 541 km, 28.5° (Epoch: 17 February)

Date Brightness Start Highest point End Pass type
(mag) Time Alt. Az. Time Alt. Az. Time Alt. Az.
18 Feb 1.3 21:22:21 10° WNW 21:26:15 42° N 21:26:15 42° N visible
19 Feb 1.3 21:12:05 10° WNW 21:16:01 40° N 21:16:29 39° NNE visible
20 Feb 1.6 21:01:49 10° WNW 21:05:42 37° N 21:06:42 32° NNE visible
21 Feb 1.7 20:51:36 10° WNW 20:55:23 34° N 20:56:54 26° NNE visible
22 Feb 2.0 20:41:23 10° WNW 20:45:04 30° NNW 20:47:07 20° NNE visible
23 Feb 2.2 20:31:12 10° WNW 20:34:44 27° NNW 20:37:21 15° NE visible
24 Feb 2.5 20:21:04 10° WNW 20:24:24 23° NNW 20:27:37 10° NE visible
25 Feb 2.8 20:11:01 10° WNW 20:14:02 19° NNW 20:17:02 10° NNE visible
26 Feb 3.1 20:01:05 10° WNW 20:03:40 16° NNW 20:06:15 10° NNE visible
